SB KEPS @ AMSAT $ORB08094.O Orbital Elements 08094.OSCAR
HR AMSAT ORBITAL ELEMENTS FOR OSCAR SATELLITES FROM WA5QGD FORT WORTH,TX April 3, 2008 Send Subscribe/unsubscribe to KEPS at http://www.amsat.org/mailman/listinfo/keps BID: ORB08094.O TO ALL RADIO AMATEURS BT
Satellite: AO-07 Catalog number: 07530 Epoch time: 08093.63709809 Element set: 142 Inclination: 101.4752 deg RA of node: 127.6405 deg Eccentricity: 0.0012073 Arg of perigee: 050.4817 deg Mean anomaly: 309.7317 deg Mean motion: 12.53573705 rev/day Decay rate: -2.7e-07 rev/day^2 Epoch rev: 52751 Checksum: 283
Satellite: AO-10 Catalog number: 14129 Epoch time: 08093.48616335 Element set: 0490 Inclination: 025.9254 deg RA of node: 222.3870 deg Eccentricity: 0.6011501 Arg of perigee: 112.0428 deg Mean anomaly: 319.9334 deg Mean motion: 02.05870866 rev/day Decay rate: 1.4e-07 rev/day^2 Epoch rev: 18654 Checksum: 284
Satellite: UO-11 Catalog number: 14781 Epoch time: 08093.91910843 Element set: 0636 Inclination: 098.1627 deg RA of node: 126.7996 deg Eccentricity: 0.0008383 Arg of perigee: 321.8118 deg Mean anomaly: 038.2504 deg Mean motion: 14.79629403 rev/day Decay rate: 4.0e-08 rev/day^2 Epoch rev: 29272 Checksum: 317
Satellite: RS-15 Catalog number: 23439 Epoch time: 08093.89184904 Element set: 0133 Inclination: 064.8142 deg RA of node: 256.8059 deg Eccentricity: 0.0149696 Arg of perigee: 137.1166 deg Mean anomaly: 224.1545 deg Mean motion: 11.27552040 rev/day Decay rate: -3.9e-07 rev/day^2 Epoch rev: 54647 Checksum: 317
Satellite: FO-29 Catalog number: 24278 Epoch time: 08094.87412977 Element set: 741 Inclination: 098.5872 deg RA of node: 020.8816 deg Eccentricity: 0.0351313 Arg of perigee: 047.9895 deg Mean anomaly: 315.0596 deg Mean motion: 13.52936941 rev/day Decay rate: -4.4e-07 rev/day^2 Epoch rev: 57434 Checksum: 349
Satellite: SO-33 Catalog number: 25509 Epoch time: 08093.91017508 Element set: 0167 Inclination: 031.4297 deg RA of node: 021.9830 deg Eccentricity: 0.0354719 Arg of perigee: 089.1146 deg Mean anomaly: 275.0094 deg Mean motion: 14.28208518 rev/day Decay rate: 2.15e-06 rev/day^2 Epoch rev: 49284 Checksum: 310
Satellite: AO-40 Catalog number: 26609 Epoch time: 08093.96854615 Element set: 34 Inclination: 007.5091 deg RA of node: 089.7898 deg Eccentricity: 0.7918353 Arg of perigee: 067.5341 deg Mean anomaly: 354.4005 deg Mean motion: 01.25584547 rev/day Decay rate: -2.24e-06 rev/day^2 Epoch rev: 3409 Checksum: 328
Satellite: VO-52 Catalog number: 28650 Epoch time: 08093.89400828 Element set: 0896 Inclination: 097.7946 deg RA of node: 162.5512 deg Eccentricity: 0.0027738 Arg of perigee: 028.6512 deg Mean anomaly: 331.6229 deg Mean motion: 14.81444059 rev/day Decay rate: 4.74e-06 rev/day^2 Epoch rev: 15745 Checksum: 338
Satellite: PO-63 Catalog number: 29712 Epoch time: 08094.72621231 Element set: 324 Inclination: 097.8812 deg RA of node: 154.2925 deg Eccentricity: 0.0013019 Arg of perigee: 263.6470 deg Mean anomaly: 096.3252 deg Mean motion: 14.80088607 rev/day Decay rate: 1.025e-05 rev/day^2 Epoch rev: 6645 Checksum: 296
/EX SB KEPS @ AMSAT $ORB08094.D Orbital Elements 08094.MICROS
HR AMSAT ORBITAL ELEMENTS FOR THE MICROSATS FROM WA5QGD FORT WORTH,TX April 3, 2008 Send Subscribe/unsubscribe to KEPS at http://www.amsat.org/mailman/listinfo/keps BID: ORB08094.D TO ALL RADIO AMATEURS BT
Satellite: AO-16 Catalog number: 20439 Epoch time: 08093.94675842 Element set: 0289 Inclination: 098.2245 deg RA of node: 077.8767 deg Eccentricity: 0.0011840 Arg of perigee: 043.4416 deg Mean anomaly: 316.7704 deg Mean motion: 14.31788890 rev/day Decay rate: 2.7e-07 rev/day^2 Epoch rev: 95015 Checksum: 334
Satellite: LO-19 Catalog number: 20442 Epoch time: 08094.70527209 Element set: 214 Inclination: 098.1967 deg RA of node: 087.3509 deg Eccentricity: 0.0012726 Arg of perigee: 039.9570 deg Mean anomaly: 320.2572 deg Mean motion: 14.32027827 rev/day Decay rate: 1.4e-07 rev/day^2 Epoch rev: 95041 Checksum: 297
Satellite: AO-27 Catalog number: 22825 Epoch time: 08093.94265919 Element set: 0937 Inclination: 098.3752 deg RA of node: 056.8156 deg Eccentricity: 0.0009067 Arg of perigee: 119.3529 deg Mean anomaly: 240.8593 deg Mean motion: 14.29234759 rev/day Decay rate: -2.3e-07 rev/day^2 Epoch rev: 75702 Checksum: 344
Satellite: IO-26 Catalog number: 22826 Epoch time: 08093.86977973 Element set: 0640 Inclination: 098.3696 deg RA of node: 057.6907 deg Eccentricity: 0.0009720 Arg of perigee: 116.7695 deg Mean anomaly: 243.4492 deg Mean motion: 14.29483146 rev/day Decay rate: 4.1e-07 rev/day^2 Epoch rev: 75710 Checksum: 348
Satellite: PO-28 Catalog number: 22829 Epoch time: 08093.96316095 Element set: 0912 Inclination: 098.3564 deg RA of node: 058.8971 deg Eccentricity: 0.0010736 Arg of perigee: 091.0329 deg Mean anomaly: 269.2088 deg Mean motion: 14.30185014 rev/day Decay rate: 3.9e-07 rev/day^2 Epoch rev: 75737 Checksum: 332
Satellite: GO-32 Catalog number: 25397 Epoch time: 08093.74130482 Element set: 0566 Inclination: 098.3732 deg RA of node: 132.6014 deg Eccentricity: 0.0002217 Arg of perigee: 099.7914 deg Mean anomaly: 260.3514 deg Mean motion: 14.23139934 rev/day Decay rate: -1.82e-06 rev/day^2 Epoch rev: 50548 Checksum: 301
Satellite: MO-46 Catalog number: 26548 Epoch time: 08093.92335833 Element set: 0064 Inclination: 064.5603 deg RA of node: 003.1621 deg Eccentricity: 0.0021449 Arg of perigee: 334.9540 deg Mean anomaly: 025.0471 deg Mean motion: 14.83244498 rev/day Decay rate: 5.3e-07 rev/day^2 Epoch rev: 40665 Checksum: 292
Satellite: NO-44 Catalog number: 26931 Epoch time: 08093.58430307 Element set: 844 Inclination: 067.0510 deg RA of node: 119.4196 deg Eccentricity: 0.0005613 Arg of perigee: 277.4353 deg Mean anomaly: 082.6131 deg Mean motion: 14.29517248 rev/day Decay rate: 3.7e-07 rev/day^2 Epoch rev: 33960 Checksum: 297
Satellite: SO-50 Catalog number: 27607 Epoch time: 08093.90151775 Element set: 0570 Inclination: 064.5590 deg RA of node: 282.2778 deg Eccentricity: 0.0082922 Arg of perigee: 294.3717 deg Mean anomaly: 064.8721 deg Mean motion: 14.71341253 rev/day Decay rate: -2.6e-07 rev/day^2 Epoch rev: 28389 Checksum: 324
Satellite: CO-55 Catalog number: 27844 Epoch time: 08093.93191513 Element set: 0273 Inclination: 098.7177 deg RA of node: 103.2385 deg Eccentricity: 0.0009661 Arg of perigee: 338.6505 deg Mean anomaly: 021.4252 deg Mean motion: 14.20569132 rev/day Decay rate: 3.9e-07 rev/day^2 Epoch rev: 24675 Checksum: 308
Satellite: CO-57 Catalog number: 27848 Epoch time: 08093.91990698 Element set: 0225 Inclination: 098.7181 deg RA of node: 102.3377 deg Eccentricity: 0.0009724 Arg of perigee: 342.1604 deg Mean anomaly: 017.9235 deg Mean motion: 14.20380314 rev/day Decay rate: 5.4e-07 rev/day^2 Epoch rev: 24672 Checksum: 314
Satellite: AO-51 Catalog number: 28375 Epoch time: 08093.61978451 Element set: 0068 Inclination: 098.0793 deg RA of node: 122.4166 deg Eccentricity: 0.0085133 Arg of perigee: 022.4021 deg Mean anomaly: 338.0853 deg Mean motion: 14.40601851 rev/day Decay rate: 1.3e-07 rev/day^2 Epoch rev: 19752 Checksum: 294
Satellite: CO-56 Catalog number: 28941 Epoch time: 08094.75026066 Element set: 964 Inclination: 098.1019 deg RA of node: 195.5362 deg Eccentricity: 0.0177999 Arg of perigee: 311.1400 deg Mean anomaly: 047.4463 deg Mean motion: 15.53041670 rev/day Decay rate: 1.8880e-04 rev/day^2 Epoch rev: 11847 Checksum: 332
Satellite: CP4 Catalog number: 31122 Epoch time: 08094.55353829 Element set: 304 Inclination: 098.0460 deg RA of node: 162.8947 deg Eccentricity: 0.0085777 Arg of perigee: 199.6716 deg Mean anomaly: 160.1177 deg Mean motion: 14.55106348 rev/day Decay rate: 5.51e-06 rev/day^2 Epoch rev: 5122 Checksum: 308
Satellite: CP3 Catalog number: 31128 Epoch time: 08094.70123372 Element set: 297 Inclination: 098.0449 deg RA of node: 161.2693 deg Eccentricity: 0.0102319 Arg of perigee: 204.6534 deg Mean anomaly: 154.9750 deg Mean motion: 14.51930080 rev/day Decay rate: -4.7e-07 rev/day^2 Epoch rev: 5112 Checksum: 277
Satellite: LIBERT Catalog number: 31129 Epoch time: 08094.74886400 Element set: 866 Inclination: 098.0431 deg RA of node: 161.3463 deg Eccentricity: 0.0102230 Arg of perigee: 204.5167 deg Mean anomaly: 155.1145 deg Mean motion: 14.52019512 rev/day Decay rate: 3.38e-06 rev/day^2 Epoch rev: 5111 Checksum: 259
/EX SB KEPS @ AMSAT $ORB08094.W Orbital Elements 08094.WEATHER
HR AMSAT ORBITAL ELEMENTS FOR WEATHER SATELLITES FROM WA5QGD FORT WORTH,TX April 3, 2008 Send Subscribe/unsubscribe to KEPS at http://www.amsat.org/mailman/listinfo/keps BID: ORB08094.W TO ALL RADIO AMATEURS BT
Satellite: NOAA-10 Catalog number: 16969 Epoch time: 08094.49896714 Element set: 68 Inclination: 098.7286 deg RA of node: 116.5995 deg Eccentricity: 0.0013128 Arg of perigee: 041.6186 deg Mean anomaly: 318.6003 deg Mean motion: 14.27356014 rev/day Decay rate: 1.74e-06 rev/day^2 Epoch rev: 12078 Checksum: 326
Satellite: NOAA-11 Catalog number: 19531 Epoch time: 08094.27788483 Element set: 105 Inclination: 098.7946 deg RA of node: 184.6516 deg Eccentricity: 0.0010749 Arg of perigee: 282.9770 deg Mean anomaly: 077.0183 deg Mean motion: 14.14868919 rev/day Decay rate: -8.5e-07 rev/day^2 Epoch rev: 731 Checksum: 338
Satellite: NOAA-12 Catalog number: 21263 Epoch time: 08094.38043353 Element set: 614 Inclination: 098.7674 deg RA of node: 096.3401 deg Eccentricity: 0.0012137 Arg of perigee: 347.4955 deg Mean anomaly: 012.5929 deg Mean motion: 14.25525272 rev/day Decay rate: 1.90e-06 rev/day^2 Epoch rev: 87773 Checksum: 308
Satellite: MET-3/5 Catalog number: 21655 Epoch time: 08093.90754787 Element set: 0424 Inclination: 082.5583 deg RA of node: 157.5650 deg Eccentricity: 0.0012793 Arg of perigee: 196.6765 deg Mean anomaly: 163.3939 deg Mean motion: 13.17014670 rev/day Decay rate: 5.1e-07 rev/day^2 Epoch rev: 79967 Checksum: 345
